Weather History for PAIN - August, 2013

Change the Weather History Date:

Tuesday, August 27, 2013

  Actual Average Record
Temperature  
Mean Temperature 47 °F -  
Max Temperature 64 °F 58 °F 79 °F (1981)
Min Temperature 30 °F 34 °F 21 °F (1969)
Degree Days  
Heating Degree Days 18    
Moisture  
Dew Point 36 °F    
Average Humidity 68    
Maximum Humidity 100    
Minimum Humidity 34    
Precipitation  
Precipitation 0.00 in - - ()
Sea Level Pressure  
Sea Level Pressure 29.75 in    
Wind  
Wind Speed 1 mph (SSE)    
Max Wind Speed 8 mph    
Max Gust Speed -    
Visibility 10 miles    
Events      
Averages and records for this station are not official NWS values.
T = Trace of Precipitation, MM = Missing Value Source: NWS Daily Summary

Daily Weather History Graph

Daily Weather History Graph

Search for Another Location

Airport or City:

Trip Planner

Search our weather history database for the weather conditions in past years. The results will help you decide how hot, cold, wet, or windy it might be!

Date:

Astronomy

Aug. 27, 2013 Rise Set
Actual Time 6:26 AM AKDT 9:25 PM AKDT
Civil Twilight 5:31 AM AKDT 10:19 PM AKDT
Nautical Twilight 4:12 AM AKDT 11:37 PM AKDT
Astronomical Twilight 2:29 AM AKDT 1:24 AM AKDT
Moon 10:43 PM AKDT (8/27) 4:14 PM AKDT (8/27)
Length of Visible Light 16h 47m
Length of Day
14h 59m
Waning Gibbous, 55% of the Moon is Illuminated
Aug 27
Waning Gibbous
Aug 28
Last Quarter
Sep 5
New
Sep 12
First Quarter
Sep 19
Full

Hourly Weather History & Observations

Time (AKDT) Temp. Windchill Dew Point Humidity Pressure Visibility Wind Dir Wind Speed Gust Speed Precip Events Conditions
12:16 AM 42.8 °F - 37.4 °F 81% 29.78 in 10.0 mi Calm Calm - N/A   Clear
12:36 AM 41.0 °F - 37.4 °F 87% 29.79 in 10.0 mi Calm Calm - N/A   Clear
12:56 AM 41.0 °F - 35.6 °F 81% 29.79 in 10.0 mi Calm Calm - N/A   Clear
1:16 AM 39.2 °F - 35.6 °F 87% 29.80 in 10.0 mi Calm Calm - N/A   Clear
1:36 AM 39.2 °F 37.0 °F 35.6 °F 87% 29.80 in 10.0 mi SW 3.5 mph - N/A   Clear
1:56 AM 39.2 °F - 35.6 °F 87% 29.80 in 10.0 mi Calm Calm - N/A   Clear
2:16 AM 37.4 °F 34.9 °F 35.6 °F 93% 29.81 in 10.0 mi SSW 3.5 mph - N/A   Clear
2:36 AM 37.4 °F - 35.6 °F 93% 29.81 in 10.0 mi Calm Calm - N/A   Clear
2:56 AM 35.6 °F - 33.8 °F 93% 29.81 in 10.0 mi Calm Calm - N/A   Clear
3:16 AM 35.6 °F - 33.8 °F 93% 29.82 in 10.0 mi Calm Calm - N/A   Clear
3:36 AM 35.6 °F - 33.8 °F 93% 29.82 in 10.0 mi Calm Calm - N/A   Clear
3:56 AM 33.8 °F - 33.8 °F 100% 29.82 in 10.0 mi Calm Calm - N/A   Clear
4:16 AM 33.8 °F - 33.8 °F 100% 29.82 in 10.0 mi Calm Calm - N/A   Clear
4:36 AM 33.8 °F - 32.0 °F 93% 29.82 in 10.0 mi Calm Calm - N/A   Clear
4:56 AM 32.0 °F - 32.0 °F 100% 29.82 in 10.0 mi Calm Calm - N/A   Clear
5:16 AM 32.0 °F - 32.0 °F 100% 29.82 in 10.0 mi Calm Calm - N/A   Clear
5:36 AM 32.0 °F - 32.0 °F 100% 29.82 in 10.0 mi Calm Calm - N/A   Clear
5:56 AM 30.2 °F - 28.4 °F 93% 29.83 in 10.0 mi Calm Calm - N/A   Partly Cloudy
6:16 AM 30.2 °F - 30.2 °F 100% 29.83 in 10.0 mi Calm Calm - N/A   Clear
6:36 AM 30.2 °F - 30.2 °F 100% 29.83 in 10.0 mi Calm Calm - N/A   Clear
6:56 AM 30.2 °F - 28.4 °F 93% 29.83 in 10.0 mi Calm Calm - N/A   Clear
7:16 AM 30.2 °F - 28.4 °F 93% 29.83 in 10.0 mi Calm Calm - N/A   Clear
7:36 AM 30.2 °F - 30.2 °F 100% 29.83 in 10.0 mi Calm Calm - N/A   Clear
7:56 AM 33.8 °F - 32.0 °F 93% 29.83 in 10.0 mi Calm Calm - N/A   Partly Cloudy
8:16 AM 35.6 °F - 33.8 °F 93% 29.83 in 10.0 mi Calm Calm - N/A   Clear
8:36 AM 37.4 °F - 35.6 °F 93% 29.83 in 10.0 mi Calm Calm - N/A   Partly Cloudy
8:56 AM 39.2 °F - 35.6 °F 87% 29.82 in 10.0 mi Calm Calm - N/A   Partly Cloudy
9:16 AM 39.2 °F - 35.6 °F 87% 29.82 in 10.0 mi Calm Calm - N/A   Partly Cloudy
9:36 AM 39.2 °F - 35.6 °F 87% 29.82 in 10.0 mi Calm Calm - N/A   Partly Cloudy
9:56 AM 39.2 °F - 35.6 °F 87% 29.81 in 10.0 mi Calm Calm - N/A   Clear
10:16 AM 41.0 °F - 35.6 °F 81% 29.81 in 10.0 mi Calm Calm - N/A   Clear
10:36 AM 44.6 °F - 37.4 °F 76% 29.80 in 10.0 mi Calm Calm - N/A   Clear
10:56 AM 46.4 °F - 37.4 °F 71% 29.79 in 10.0 mi Calm Calm - N/A   Clear
11:16 AM 48.2 °F - 39.2 °F 71% 29.78 in 10.0 mi Calm Calm - N/A   Clear
11:36 AM 51.8 °F - 37.4 °F 58% 29.77 in 10.0 mi Calm Calm - N/A   Clear
11:56 AM 53.6 °F - 37.4 °F 54% 29.77 in 10.0 mi Calm Calm - N/A   Clear
12:16 PM 53.6 °F - 37.4 °F 54% 29.76 in 10.0 mi Calm Calm - N/A   Clear
12:36 PM 55.4 °F - 37.4 °F 51% 29.75 in 10.0 mi Calm Calm - N/A   Clear
12:56 PM 57.2 °F - 37.4 °F 48% 29.74 in 10.0 mi Calm Calm - N/A   Clear
1:16 PM 60.8 °F - 37.4 °F 42% 29.73 in 10.0 mi Calm Calm - N/A   Clear
1:36 PM 60.8 °F - 37.4 °F 42% 29.73 in 10.0 mi SSE 4.6 mph - N/A   Scattered Clouds
1:56 PM 60.8 °F - 37.4 °F 42% 29.72 in 10.0 mi SE 4.6 mph - N/A   Overcast
2:16 PM 60.8 °F - 37.4 °F 42% 29.72 in 10.0 mi SE 3.5 mph - N/A   Overcast
2:36 PM 62.6 °F - 37.4 °F 39% 29.72 in 10.0 mi SSE 5.8 mph - N/A   Overcast
2:56 PM 60.8 °F - 37.4 °F 42% 29.72 in 10.0 mi SSE 5.8 mph - N/A   Overcast
3:16 PM 62.6 °F - 37.4 °F 39% 29.71 in 10.0 mi SSE 6.9 mph - N/A   Overcast
3:36 PM 64.4 °F - 37.4 °F 37% 29.71 in 10.0 mi SSE 5.8 mph - N/A   Mostly Cloudy
3:56 PM 62.6 °F - 37.4 °F 39% 29.70 in 10.0 mi SSE 5.8 mph - N/A   Scattered Clouds
4:16 PM 64.4 °F - 37.4 °F 37% 29.70 in 10.0 mi SSE 4.6 mph - N/A   Mostly Cloudy
4:36 PM 64.4 °F - 37.4 °F 37% 29.70 in 10.0 mi South 4.6 mph - N/A   Mostly Cloudy
4:56 PM 62.6 °F - 35.6 °F 37% 29.69 in 10.0 mi SSE 4.6 mph - N/A   Scattered Clouds
5:16 PM 62.6 °F - 35.6 °F 37% 29.69 in 10.0 mi South 4.6 mph - N/A   Scattered Clouds
5:36 PM 62.6 °F - 35.6 °F 37% 29.68 in 10.0 mi SSE 4.6 mph - N/A   Mostly Cloudy
5:56 PM 64.4 °F - 35.6 °F 34% 29.68 in 10.0 mi South 6.9 mph - N/A   Overcast
6:16 PM 62.6 °F - 35.6 °F 37% 29.68 in 10.0 mi South 6.9 mph - N/A   Mostly Cloudy
6:36 PM 64.4 °F - 35.6 °F 34% 29.67 in 10.0 mi SSW 8.1 mph - N/A   Scattered Clouds
6:56 PM 62.6 °F - 35.6 °F 37% 29.67 in 10.0 mi SSE 6.9 mph - N/A   Mostly Cloudy
7:16 PM 60.8 °F - 33.8 °F 36% 29.66 in 10.0 mi South 6.9 mph - N/A   Mostly Cloudy
7:36 PM 60.8 °F - 33.8 °F 36% 29.66 in 10.0 mi South 6.9 mph - N/A   Mostly Cloudy
7:56 PM 60.8 °F - 35.6 °F 39% 29.67 in 10.0 mi South 5.8 mph - N/A   Mostly Cloudy
8:16 PM 59.0 °F - 37.4 °F 45% 29.66 in 10.0 mi South 4.6 mph - N/A   Overcast
8:36 PM 57.2 °F - 37.4 °F 48% 29.67 in 10.0 mi Calm Calm - N/A   Overcast
8:56 PM 57.2 °F - 39.2 °F 51% 29.66 in 10.0 mi Calm Calm - N/A   Mostly Cloudy
9:16 PM 55.4 °F - 39.2 °F 54% 29.67 in 10.0 mi Calm Calm - N/A   Mostly Cloudy
9:36 PM 53.6 °F - 41.0 °F 62% 29.68 in 10.0 mi Calm Calm - N/A   Mostly Cloudy
9:56 PM 53.6 °F - 41.0 °F 62% 29.68 in 10.0 mi North 8.1 mph - N/A   Overcast
10:16 PM 53.6 °F - 42.8 °F 67% 29.68 in 10.0 mi West 4.6 mph - N/A   Overcast
10:36 PM 53.6 °F - 42.8 °F 67% 29.68 in 10.0 mi Calm Calm - N/A   Overcast
10:56 PM 53.6 °F - 42.8 °F 67% 29.69 in 10.0 mi NE 3.5 mph - N/A   Overcast
11:16 PM 51.8 °F - 44.6 °F 76% 29.70 in 10.0 mi NNW 3.5 mph - N/A   Overcast
11:36 PM 51.8 °F - 44.6 °F 76% 29.70 in 10.0 mi North 6.9 mph - N/A   Overcast
11:56 PM 48.2 °F - 46.4 °F 93% 29.70 in 10.0 mi North 6.9 mph - N/A   Overcast